Find Starlink 35634

NORAD ID: 66173 Int'l Des: 2025-240 Owner: SPXS Country: US Constellation: starlink operational
LEOCIRCULAR

現在のビュー

3D地球を読み込み中...

About Starlink 35634

Starlink 35634 (NORAD 66173) is a starlink constellation satellite (v2 mini) launched Oct 25, 2025 by SPXS of US. It operates in LEO, CIRCULAR orbit with a mass of 575.00 kg.

Starlink 35634について

説明を読み込み中...

次回通過

Passes for default location (London). Set your location on the main map for personalized predictions.

高度履歴

Loading altitude history...

軌道要素

1 66173U 25240AD 26194.44841586 .00012244 00000-0 37288-3 0 9992
2 66173 53.1575 196.4709 0001508 63.2831 296.8325 15.34404092 41275
Epoch: Jul 13, 2026 • Age: 20 hours

現在のステータス

高度 478.4 km
遠地点 / 近地点 N/A
速度 7.63 km/s
衛星直下点 -43.75°S, 27.58°E
打ち上げ日 Oct 25, 2025
運用期間 0.7 years
タイプ internet

技術仕様

分類 Payload
質量 575.00 kg
乾燥質量 530.00 kg
総質量 575.00 kg
長さ 0.30 m
直径 4.10 m
スパン 29.00 m
形状 Box + pan
製造者 SPXS
バスタイプ Starlink V2MO
フェーズステータス In Orbit
所有者/国 SPXS/US

Most Searched